COSMOS 1275 DEB, 42182

Orbit data source: Space-Track

COSMOS 1275 DEB, 42182 is space debris in LEO originally from a launch on Thu, 04 Jun 1981 UTC launched from the Plesetsk Missile And Space Complex (PKMTR). Debris objects in space refer to the collection of defunct objects orbiting the Earth. Examples of debris include non-operational satellites, rocket bodies, and fragments generated from explosions, collisions, or faulty payload assembly.

Loading next visibility...
Identifier
42182, 1981-053SW
Orbit
LEO
Country
Flag of CISCIS
Related business
Manufacturer
Unknown
Mission
Spacecraft
Bus & Motor
Unknown
Mass
Unknown
Launch date (UTC)
1981-06-04 (45 years ago)
Launch vehicle
Unknown
Launch site
Plesetsk Missile And Space Complex (PKMTR)
Object type
Payload
Rocket body
Debris
Shape & HBR
Unknown shape, 0.1 m
Radar Cross Section
Small (<0.1 m²)

Expand to show TLE details & history
Last TLE update: 1 week ago

TLE from 1 week ago
0 COSMOS 1275 DEB
1 42182U 81053SW  25333.10281185  .00000663  00000-0  78520-3 0  9996
2 42182  82.9522 102.9362 0127449  70.9858 107.2783 13.62858722583989
Epoch: 2025-11-29T02:28Z
TLE epoch observation values (Epoch: 2025-11-29T02:28:02.943Z)
Latitude
0.23297°
Longitude
177.65945°
Altitude
1,057.296 km
Speed
7.309 km/s
True Right ascension
18h 51m 37s
True Declination
0° 13' 54"
Sunlit
Object was in daylight at epoch
Visualization orbit readout
Latitude
Unknown
Longitude
Unknown
Altitude
Unknown
Speed
Unknown
Apparent Right ascension
Unknown
Apparent Declination
Unknown
Sunlit
N/A
Visualization observer readout
Local Sidereal Time
10:00:47
Azimuth
Unknown
Elevation
Unknown
Doppler factor
Unknown
Orbital elements
Apogee altitude
1,116.806 km
Perigee altitude
928.165 km
Semi-major axis
7,400.623 km
Eccentricity
0.01274
Inclination
82.9522°
RAAN
102.9362°
Arg. of periapsis
70.9858°
True anomaly
108.66615°
Mean anomaly
107.2783°
Eccentric anomaly
107.9729°
Mean motion
3.40911 °/min
Orbital period
105.6 mins
BSTAR
0.0007852
Loading maneuver chart data...
Computing Atmospheric mass density...
Loading historical data...
Loading historical data...
Loading historical data...
Loading historical data...
Loading historical data...
Loading historical data...
Loading historical data...

Documentation

Showing up to 5 results
|